Theta_e
304 303 303 302 302 302 302 302 302 302 302 302 301 300 300 300 300 300 299 299 298 298 298 298 297 298 299
302 302 301 301 301 301 302 302 301 301 300 302 301 301 300 300 300 299 299 298 298 298 296 295 295 296 297
301 302 301 301 301 301 300 300 301 300 300 300 300 300 299 299 299 299 298 297 297 294 292 292 292 291 291
300 300 300 300 300 299 299 299 299 299 299 299 298 299 298 298 298 297 296 296 294 291 291 290 290 290 290
299 299 300 300 299 299 298 298 298 299 298 298 298 298 297 296 296 295 293 291 290 290 289 289 289 288 288
299 299 299 299 299 298 298 298 297 298 298 297 297 296 295 294 292 291 290 289 289 288 288 287 287 286 285
298 298 298 298 298 298 297 297 297 297 296 295 294 292 291 291 290 290 289 288 287 287 287 286 285 284 284
297 297 297 297 297 296 296 295 293 291 290 290 290 290 290 289 289 288 287 287 286 286 285 284 284 283 283
296 296 295 294 291 291 290 290 290 290 290 289 288 287 287 287 286 286 286 286 286 284 283 283 283 283 283
293 291 290 290 290 290 289 289 289 289 288 287 286 285 284 285 285 285 285 284 283 283 282 282 282 283 283
289 289 289 289 289 289 289 289 289 288 286 285 284 284 284 283 283 283 282 282 282 282 282 282 282 283 283
289 290 289 289 288 288 288 288 288 286 285 284 284 284 283 283 282 282 282 282 282 282 282 282 282 282 283
290 289 289 289 288 288 288 288 286 285 284 284 284 283 283 282 282 282 281 282 282 282 282 282 282 283 283
291 290 290 290 287 287 287 286 285 284 283 283 283 282 282 282 282 281 282 282 282 282 282 282 282 282 283
291 290 291 288 286 287 286 285 284 283 283 283 282 282 282 282 282 281 281 281 282 282 282 282 282 282 282
291 290 290 287 286 286 285 284 283 283 282 282 282 282 281 281 281 281 281 281 282 282 282 282 282 282 282
290 290 290 286 286 286 284 283 282 282 282 282 282 281 281 281 281 281 281 282 282 282 281 281 281 282 281
Wind_Speed
19 16 13 11 10 9 8 7 7 6 4 6 4 4 4 6 5 5 6 8 9 11 12 9 12 10 10
15 13 11 9 9 8 8 7 7 6 3 5 7 5 4 6 6 6 7 9 11 13 6 3 2 3 7
13 13 12 10 9 9 8 7 7 6 8 9 7 5 8 7 6 8 8 11 12 4 1 1 2 3 5
13 12 11 11 11 10 9 9 8 11 11 11 9 9 7 7 7 7 9 9 5 3 4 5 7 8 10
13 13 13 16 12 11 10 9 11 10 10 10 10 9 7 6 7 7 6 3 4 6 8 10 11 12 13
14 14 15 14 12 11 11 13 9 7 8 7 7 7 7 5 5 6 6 6 7 8 9 10 11 12 13
11 13 13 11 10 10 9 9 8 7 7 8 7 7 6 6 8 9 8 8 9 10 10 11 13 13 13
10 8 10 9 9 8 9 9 8 6 5 5 6 6 7 8 9 10 8 9 10 10 12 14 14 14 13
10 10 10 11 10 9 8 8 5 3 3 4 5 5 7 9 9 9 9 10 10 12 13 12 12 11 10
12 11 11 10 8 6 5 4 3 2 2 2 4 4 4 5 6 6 8 10 11 11 11 10 10 9 9
12 10 9 7 6 5 4 3 2 2 2 3 3 4 5 6 7 8 8 8 9 9 9 9 9 9 8
9 8 6 5 3 3 2 1 0 1 2 3 4 4 5 6 6 6 7 6 6 5 7 7 9 9 9
7 5 5 3 3 3 2 1 1 2 3 4 4 4 4 5 5 4 4 4 3 6 7 8 8 8 7
8 8 6 5 5 4 2 1 2 3 3 4 4 4 3 3 2 2 1 2 4 5 7 8 9 10 11
9 9 8 6 5 4 3 2 3 3 3 4 3 2 2 1 1 1 1 4 5 5 5 6 9 11 12
8 8 8 6 6 5 3 3 3 3 3 3 2 1 1 1 1 0 2 2 4 7 10 10 8 11 13
8 9 9 7 7 6 4 4 3 3 3 3 2 1 1 2 2 1 2 4 5 7 10 14 16 13 13
Wind_Direction
209 208 218 237 245 245 237 232 240 222 242 257 252 271 264 270 279 283 277 290 301 300 296 273 253 256 263
208 213 217 226 241 241 223 225 233 233 245 252 249 240 277 267 284 279 297 307 300 299 290 301 266 293 260
218 221 230 231 233 232 226 229 224 222 199 225 193 231 271 274 284 293 292 295 299 307 314 304 326 320 311
221 223 230 232 233 228 238 238 227 210 224 229 262 267 276 267 273 276 283 293 294 297 298 300 303 305 301
222 225 229 219 231 233 234 227 215 218 218 228 250 252 250 254 273 283 292 296 289 302 305 308 307 305 304
228 222 224 230 231 230 227 213 197 201 212 223 232 239 242 241 267 290 306 294 300 304 306 306 309 312 312
221 221 223 227 221 213 196 202 209 197 206 213 212 220 234 256 270 283 295 297 302 308 312 316 317 316 314
210 206 196 203 203 200 185 182 171 171 187 207 223 237 247 255 262 279 290 296 304 312 317 320 320 320 318
177 180 178 167 163 161 160 164 173 187 211 236 236 245 252 257 264 275 287 292 303 311 317 320 321 325 324
157 156 154 155 159 166 177 184 189 206 208 238 251 262 267 264 264 269 283 292 303 310 313 316 323 330 330
149 150 151 156 162 168 174 184 199 226 253 270 262 268 256 266 271 277 284 294 303 310 317 322 327 331 337
153 151 153 156 158 163 164 153 305 289 290 288 279 274 270 268 267 272 288 295 310 331 332 341 342 341 337
166 171 176 177 188 183 188 217 301 309 306 304 301 288 275 262 261 263 281 303 341 355 351 355 359 357 355
214 204 205 205 205 204 211 245 298 312 316 313 306 290 270 252 244 243 288 335 348 12 13 6 7 4 0
223 207 207 208 215 215 228 273 300 300 309 315 321 310 287 222 216 265 342 347 359 13 21 12 351 347 345
220 210 205 214 222 224 238 262 276 289 312 316 311 290 240 185 197 247 349 356 351 350 348 342 342 332 330
213 214 207 213 223 229 235 254 268 290 298 289 290 235 206 205 212 255 312 335 341 336 331 336 339 341 328